M I D A S
Marine Information and Data Acquisition System
Tripno 1805 of the Zeeleeuw from 2009-11-06 07:33:50 to 2009-11-06 14:23:38
Back to CruiseResearch ActivitiesStationsMapUnderway DataData graphs

EquipmentUnitsComments
TimeDGPSUTC
LatitudeDGPSDM.mWGS84
LongitudeDGPSDM.mWGS84
SpeedMeteo Stationm/sRelative wind speed
DirectionMeteo StationdegRelative wind direction
TemperatureMeteo Stationdeg CelciusAir temperature
PressureMeteo StationPaAtmospheric pressure
HumidityMeteo Station%Relative humidity
Missing or incorrect values are displayed as -999
Metereological data collected by the RV Zeeleeuw from 2009-11-06 07:29:44 to 2009-11-06 14:23:38
Time Latitude Longitude Speed Direction Temperature Pressure Humidity
2009-11-06 07:30 51°13.681 2°55.892 -999 40 8.2 100300 44
2009-11-06 07:31 51°13.696 2°55.806 -999 36 8.2 100300 44
2009-11-06 07:32 51°13.703 2°55.741 -999 23 8.2 100300 44
2009-11-06 07:33 51°13.713 2°55.738 -999 23 8.2 100300 44
2009-11-06 07:34 51°13.705 2°55.727 0.1 18 8.2 100300 44
2009-11-06 07:35 51°13.747 2°55.694 0.1 26 8.3 100300 44
2009-11-06 07:36 51°13.845 2°55.622 -999 315 8.2 100300 44
2009-11-06 07:37 51°13.965 2°55.533 -999 23 8.2 100310 44
2009-11-06 07:38 51°14.094 2°55.432 -999 23 8.3 100310 44
2009-11-06 07:39 51°14.219 2°55.305 -999 22 8.3 100310 44
2009-11-06 07:40 51°14.33 2°55.123 5.2 19 8.3 100300 45
2009-11-06 07:41 51°14.446 2°54.909 5.3 23 8.3 100300 44
2009-11-06 07:42 51°14.591 2°54.728 -999 252 8.4 100310 45
2009-11-06 07:43 51°14.754 2°54.599 -999 247 8.4 100300 45
2009-11-06 07:44 51°14.919 2°54.477 3.5 250 8.5 100300 45
2009-11-06 07:45 51°15.085 2°54.355 1.8 254 8.5 100310 45
2009-11-06 07:46 51°15.251 2°54.233 3.4 260 8.6 100310 43
2009-11-06 07:47 51°15.416 2°54.111 2.4 256 8.6 100310 43
2009-11-06 07:48 51°15.583 2°53.988 0.1 250 8.7 100310 46
2009-11-06 07:49 51°15.75 2°53.863 2.6 254 8.8 100310 44
2009-11-06 07:50 51°15.916 2°53.732 3.5 257 8.8 100300 46
2009-11-06 07:51 51°16.069 2°53.56 4.8 249 8.8 100310 44
2009-11-06 07:52 51°16.223 2°53.387 4.1 249 8.8 100300 43
2009-11-06 07:53 51°16.38 2°53.219 4.9 252 8.9 100300 45
2009-11-06 07:54 51°16.536 2°53.056 5.5 258 9 100300 44
2009-11-06 07:55 51°16.693 2°52.894 3.6 255 9 100300 46
2009-11-06 07:56 51°16.852 2°52.748 3.4 259 9.1 100300 46
2009-11-06 07:57 51°17.021 2°52.661 1.5 268 9.2 100300 46
2009-11-06 07:58 51°17.196 2°52.639 -999 26 9.2 100300 45
2009-11-06 07:59 51°17.372 2°52.627 -999 269 9.2 100300 45
2009-11-06 08:00 51°17.548 2°52.614 -999 265 9.2 100300 45
2009-11-06 08:01 51°17.724 2°52.596 -999 269 9.3 100300 45
2009-11-06 08:02 51°17.9 2°52.574 -999 263 9.3 100290 45
2009-11-06 08:03 51°18.075 2°52.547 0.1 265 9.4 100290 45
2009-11-06 08:04 51°18.25 2°52.524 -999 23 9.4 100300 45
2009-11-06 08:05 51°18.42 2°52.565 -999 23 9.4 100300 45
2009-11-06 08:06 51°18.589 2°52.62 -999 23 9.4 100290 45
2009-11-06 08:07 51°18.759 2°52.678 0.1 21 9.5 100300 45
2009-11-06 08:08 51°18.929 2°52.726 -999 24 9.5 100300 45
2009-11-06 08:09 51°19.1 2°52.775 -999 24 9.5 100310 46
2009-11-06 08:10 51°19.271 2°52.825 -999 23 9.6 100310 47
2009-11-06 08:11 51°19.443 2°52.874 -999 23 9.6 100310 45
2009-11-06 08:12 51°19.615 2°52.921 1.1 25 9.6 100310 45
2009-11-06 08:13 51°19.787 2°52.97 -999 23 9.6 100310 45
2009-11-06 08:14 51°19.958 2°53.015 0.1 25 9.7 100310 45
2009-11-06 08:15 51°20.13 2°53.055 1.2 26 9.7 100320 45
2009-11-06 08:16 51°20.302 2°53.097 -999 23 9.8 100310 45
2009-11-06 08:17 51°20.472 2°53.14 0.1 23 9.9 100310 45
2009-11-06 08:18 51°20.643 2°53.181 -999 23 9.9 100320 45
2009-11-06 08:19 51°20.811 2°53.228 -999 23 10 100310 46
2009-11-06 08:20 51°20.982 2°53.267 -999 267 10 100310 45
2009-11-06 08:21 51°21.152 2°53.309 1.5 25 10.1 100310 46
2009-11-06 08:22 51°21.323 2°53.349 -999 23 10 100310 46
2009-11-06 08:23 51°21.492 2°53.393 -999 24 10.1 100310 46
2009-11-06 08:24 51°21.661 2°53.438 -999 23 10.3 100300 45
2009-11-06 08:25 51°21.832 2°53.478 -999 23 10.3 100300 46
2009-11-06 08:26 51°22.003 2°53.519 -999 23 10.3 100300 46
2009-11-06 08:27 51°22.173 2°53.559 -999 23 10.2 100300 45
2009-11-06 08:28 51°22.344 2°53.599 0.1 20 10.2 100290 45
2009-11-06 08:29 51°22.515 2°53.639 -999 23 10.2 100290 45
2009-11-06 08:30 51°22.688 2°53.682 -999 23 10.2 100290 45
2009-11-06 08:31 51°22.861 2°53.726 0.1 23 10.3 100290 45
2009-11-06 08:32 51°23.033 2°53.77 -999 23 10.3 100300 45
2009-11-06 08:33 51°23.203 2°53.817 -999 23 10.2 100290 45
2009-11-06 08:34 51°23.372 2°53.86 -999 23 10.3 100300 45
2009-11-06 08:35 51°23.541 2°53.903 -999 23 10.3 100290 45
2009-11-06 08:36 51°23.709 2°53.948 -999 23 10.3 100300 45
2009-11-06 08:37 51°23.878 2°53.991 -999 23 10.3 100300 45
2009-11-06 08:38 51°24.046 2°54.034 0.1 23 10.3 100300 45
2009-11-06 08:39 51°24.217 2°54.067 -999 23 10.4 100300 45
2009-11-06 08:40 51°24.39 2°54.077 0.1 24 10.4 100290 45
2009-11-06 08:41 51°24.562 2°54.087 1.7 26 10.3 100290 44
2009-11-06 08:42 51°24.734 2°54.102 0.1 20 10.3 100290 45
2009-11-06 08:43 51°24.906 2°54.114 2.2 22 10.3 100290 45
2009-11-06 08:44 51°25.08 2°54.127 1.4 23 10.3 100280 45
2009-11-06 08:45 51°25.253 2°54.143 0.1 23 10.3 100280 45
2009-11-06 08:46 51°25.425 2°54.161 0.1 29 10.3 100280 45
2009-11-06 08:47 51°25.596 2°54.177 0.1 25 10.3 100280 45
2009-11-06 08:48 51°25.767 2°54.191 -999 24 10.4 100270 45
2009-11-06 08:49 51°25.938 2°54.206 0.1 24 10.4 100280 46
2009-11-06 08:50 51°26.11 2°54.216 1.8 25 10.4 100280 47
2009-11-06 08:51 51°26.282 2°54.231 2.6 32 10.4 100270 47
2009-11-06 08:52 51°26.453 2°54.249 -999 24 10.5 100270 46
2009-11-06 08:53 51°26.624 2°54.257 0.3 36 10.6 100280 46
2009-11-06 08:54 51°26.795 2°54.255 1.5 32 10.7 100280 46
2009-11-06 08:55 51°26.961 2°54.25 0.3 40 10.7 100280 46
2009-11-06 08:56 51°27.127 2°54.246 3.5 35 10.7 100280 46
2009-11-06 08:57 51°27.292 2°54.243 3.3 30 10.7 100280 48
2009-11-06 08:58 51°27.461 2°54.242 3.2 39 10.6 100280 46
2009-11-06 08:59 51°27.628 2°54.242 2.5 32 10.6 100270 44
2009-11-06 09:00 51°27.795 2°54.244 3.2 29 10.6 100280 47
2009-11-06 09:01 51°27.962 2°54.246 3.9 19 10.6 100280 46
2009-11-06 09:02 51°28.127 2°54.252 3.4 34 10.5 100280 46
2009-11-06 09:03 51°28.292 2°54.257 2.7 23 10.6 100280 47
2009-11-06 09:04 51°28.46 2°54.265 2.4 33 10.6 100280 43
2009-11-06 09:05 51°28.625 2°54.27 2.6 27 10.7 100270 45
2009-11-06 09:06 51°28.792 2°54.275 0.2 264 10.7 100280 44
2009-11-06 09:07 51°28.957 2°54.279 2.3 32 10.7 100280 45
2009-11-06 09:08 51°29.125 2°54.282 1.9 25 10.7 100280 43
2009-11-06 09:09 51°29.293 2°54.285 3.4 38 10.7 100280 46
2009-11-06 09:10 51°29.463 2°54.289 3.7 25 10.7 100270 41
2009-11-06 09:11 51°29.632 2°54.291 1.7 33 10.8 100270 46
2009-11-06 09:12 51°29.803 2°54.29 2.3 39 10.8 100270 47
2009-11-06 09:13 51°29.973 2°54.292 -999 37 10.8 100280 45
2009-11-06 09:14 51°30.141 2°54.297 0.1 34 10.9 100270 46
2009-11-06 09:15 51°30.305 2°54.34 -999 35 10.9 100270 46
2009-11-06 09:16 51°30.469 2°54.389 1.4 37 10.9 100270 46
2009-11-06 09:17 51°30.633 2°54.442 2.3 35 11 100270 46
2009-11-06 09:18 51°30.796 2°54.498 0.1 35 10.9 100280 45
2009-11-06 09:19 51°30.953 2°54.554 0.1 35 10.9 100280 46
2009-11-06 09:20 51°31.11 2°54.606 0.1 35 10.9 100280 45
2009-11-06 09:21 51°31.266 2°54.663 1.3 31 11 100270 45
2009-11-06 09:22 51°31.424 2°54.716 -999 35 11 100270 45
2009-11-06 09:23 51°31.581 2°54.772 0.2 25 11 100280 45
2009-11-06 09:24 51°31.737 2°54.82 2.5 34 11.1 100270 46
2009-11-06 09:25 51°31.898 2°54.857 2.2 27 11.1 100270 45
2009-11-06 09:26 51°32.057 2°54.881 2.7 36 11.2 100270 48
2009-11-06 09:27 51°32.176 2°54.891 4.3 31 11.2 100260 44
2009-11-06 09:28 51°32.248 2°54.939 0.4 28 11.4 100270 45
2009-11-06 09:29 51°32.331 2°55.002 3.6 33 12.1 100270 44
2009-11-06 09:30 51°32.389 2°55.087 7.7 35 11.9 100260 46
2009-11-06 09:31 51°32.386 2°55.138 10 28 11.8 100240 44
2009-11-06 09:32 51°32.373 2°55.159 10.7 23 11.5 100240 46
2009-11-06 09:33 51°32.358 2°55.167 9.7 20 11.3 100240 44
2009-11-06 09:34 51°32.343 2°55.17 10.1 17 11.2 100230 44
2009-11-06 09:35 51°32.33 2°55.169 11 10 11.2 100250 46
2009-11-06 09:36 51°32.319 2°55.166 10.5 16 11.2 100240 45
2009-11-06 09:37 51°32.309 2°55.162 9.1 19 11.2 100240 46
2009-11-06 09:38 51°32.299 2°55.155 10.7 12 11 100240 46
2009-11-06 09:39 51°32.292 2°55.146 10.2 21 11 100220 46
2009-11-06 09:40 51°32.283 2°55.137 10.4 14 10.9 100240 47
2009-11-06 09:41 51°32.272 2°55.127 10.4 12 11.1 100230 45
2009-11-06 09:42 51°32.263 2°55.118 10 13 11 100220 46
2009-11-06 09:43 51°32.255 2°55.11 10.4 17 11 100230 46
2009-11-06 09:44 51°32.249 2°55.101 10.2 20 10.9 100230 47
2009-11-06 09:45 51°32.243 2°55.091 9.1 22 10.9 100230 45
2009-11-06 09:46 51°32.237 2°55.08 9.4 26 10.9 100240 45
2009-11-06 09:47 51°32.231 2°55.07 9.7 26 11 100230 45
2009-11-06 09:48 51°32.223 2°55.058 10.2 25 11 100230 46
2009-11-06 09:49 51°32.214 2°55.043 11 25 11 100230 46
2009-11-06 09:50 51°32.204 2°55.032 10.5 21 10.9 100240 44
2009-11-06 09:51 51°32.196 2°55.024 10 19 10.9 100230 46
2009-11-06 09:52 51°32.187 2°55.016 10.9 19 11 100230 45
2009-11-06 09:53 51°32.178 2°55.007 10.3 22 11 100240 46
2009-11-06 09:54 51°32.171 2°54.999 11.2 24 11 100260 46
2009-11-06 09:55 51°32.164 2°54.991 10.2 24 10.9 100280 45
2009-11-06 09:56 51°32.156 2°54.981 8.9 24 10.9 100250 46
2009-11-06 09:57 51°32.145 2°54.968 9.7 26 11 100250 44
2009-11-06 09:58 51°32.134 2°54.957 9.7 17 11 100230 45
2009-11-06 09:59 51°32.123 2°54.95 11.1 15 11 100240 46
2009-11-06 10:00 51°32.112 2°54.945 8.7 15 10.9 100240 45
2009-11-06 10:01 51°32.103 2°54.939 11.2 21 10.9 100230 45
2009-11-06 10:02 51°32.095 2°54.932 10.1 26 11 100230 44
2009-11-06 10:03 51°32.087 2°54.924 7.9 27 11 100240 46
2009-11-06 10:04 51°32.077 2°54.915 9.2 25 11.1 100240 45
2009-11-06 10:05 51°32.069 2°54.903 11.1 23 11.1 100240 46
2009-11-06 10:06 51°32.059 2°54.891 10.2 22 11.1 100240 47
2009-11-06 10:07 51°32.049 2°54.881 10.2 15 11.1 100240 46
2009-11-06 10:08 51°32.041 2°54.87 11.6 22 11.1 100230 45
2009-11-06 10:09 51°32.034 2°54.859 10.1 19 11.1 100280 45
2009-11-06 10:10 51°32.026 2°54.843 9.5 25 11.1 100260 47
2009-11-06 10:11 51°32.016 2°54.825 10.6 28 11.2 100250 46
2009-11-06 10:12 51°32.007 2°54.811 8 29 11.1 100250 45
2009-11-06 10:13 51°31.998 2°54.799 8 23 11.2 100250 45
2009-11-06 10:14 51°31.987 2°54.789 9.6 20 11.2 100270 46
2009-11-06 10:15 51°31.978 2°54.777 9.6 22 11.1 100250 45
2009-11-06 10:16 51°31.968 2°54.762 8.5 21 11.2 100250 45
2009-11-06 10:17 51°31.959 2°54.747 10.4 18 11.1 100250 44
2009-11-06 10:18 51°31.951 2°54.733 10.2 25 11.1 100280 46
2009-11-06 10:19 51°31.944 2°54.72 9.4 23 11.2 100250 45
2009-11-06 10:20 51°31.936 2°54.708 9.3 26 11.2 100250 45
2009-11-06 10:21 51°31.929 2°54.699 9.6 31 11.2 100250 44
2009-11-06 10:22 51°31.917 2°54.692 8.2 22 11.3 100250 46
2009-11-06 10:23 51°31.907 2°54.682 11.2 20 11.3 100250 46
2009-11-06 10:24 51°31.896 2°54.671 11.5 21 11.2 100240 45
2009-11-06 10:25 51°31.885 2°54.664 11.1 17 11.1 100260 46
2009-11-06 10:26 51°31.874 2°54.658 9.1 19 11.2 100250 46
2009-11-06 10:27 51°31.865 2°54.651 8.9 24 11.2 100250 44
2009-11-06 10:28 51°31.856 2°54.643 10.5 23 11.2 100260 46
2009-11-06 10:29 51°31.848 2°54.638 8.8 30 11.2 100250 46
2009-11-06 10:30 51°31.837 2°54.632 9.1 24 11.4 100240 46
2009-11-06 10:31 51°31.825 2°54.623 11.3 28 11.3 100250 45
2009-11-06 10:32 51°31.813 2°54.614 9.2 19 11.3 100240 46
2009-11-06 10:33 51°31.8 2°54.607 8.5 15 11.3 100270 44
2009-11-06 10:34 51°31.79 2°54.6 8.8 17 11.4 100240 44
2009-11-06 10:35 51°31.781 2°54.593 8.6 25 11.5 100240 47
2009-11-06 10:36 51°31.771 2°54.586 9 22 11.5 100230 44
2009-11-06 10:37 51°31.761 2°54.58 8.4 29 11.3 100240 45
2009-11-06 10:38 51°31.75 2°54.571 7.9 22 11.3 100230 45
2009-11-06 10:39 51°31.739 2°54.559 8.3 28 11.4 100250 46
2009-11-06 10:40 51°31.729 2°54.548 10.5 22 11.4 100250 46
2009-11-06 10:41 51°31.722 2°54.54 9.1 20 11.3 100230 43
2009-11-06 10:42 51°31.714 2°54.531 7.8 25 11.3 100220 44
2009-11-06 10:43 51°31.704 2°54.524 8.2 26 11.4 100220 43
2009-11-06 10:44 51°31.693 2°54.516 6.6 22 11.5 100220 46
2009-11-06 10:45 51°31.682 2°54.508 8.4 21 11.5 100230 44
2009-11-06 10:46 51°31.671 2°54.497 8.3 23 11.4 100200 44
2009-11-06 10:47 51°31.66 2°54.487 10.4 21 11.4 100240 45
2009-11-06 10:48 51°31.649 2°54.481 7.6 25 11.5 100220 44
2009-11-06 10:49 51°31.638 2°54.477 8.8 21 11.4 100220 44
2009-11-06 10:50 51°31.627 2°54.472 11.1 18 11.4 100210 46
2009-11-06 10:51 51°31.619 2°54.467 9.3 22 11.4 100210 46
2009-11-06 10:52 51°31.61 2°54.461 10.3 23 11.5 100240 44
2009-11-06 10:53 51°31.601 2°54.455 8 25 11.5 100230 45
2009-11-06 10:54 51°31.59 2°54.447 9.6 25 11.4 100250 44
2009-11-06 10:55 51°31.58 2°54.438 10.5 23 11.4 100240 45
2009-11-06 10:56 51°31.569 2°54.433 8.2 22 11.5 100210 43
2009-11-06 10:57 51°31.551 2°54.46 7.2 31 11.5 100220 46
2009-11-06 10:58 51°31.569 2°54.525 4 25 11.5 100240 46
2009-11-06 10:59 51°31.668 2°54.641 0.8 24 11.6 100240 45
2009-11-06 11:00 51°31.775 2°54.8 2.4 21 11.9 100240 44
2009-11-06 11:01 51°31.899 2°54.934 1.9 25 11.7 100230 45
2009-11-06 11:02 51°31.992 2°55.032 6.7 22 11.7 100240 44
2009-11-06 11:03 51°32.004 2°55.098 7.8 36 11.6 100230 45
2009-11-06 11:04 51°31.989 2°55.129 9.2 28 11.6 100210 43
2009-11-06 11:05 51°31.971 2°55.141 10 19 11.6 100230 45
2009-11-06 11:06 51°31.956 2°55.147 10 20 11.5 100220 44
2009-11-06 11:07 51°31.942 2°55.149 9.7 21 11.5 100210 43
2009-11-06 11:08 51°31.931 2°55.15 9.2 19 11.5 100220 45
2009-11-06 11:09 51°31.92 2°55.15 8.5 20 11.5 100210 44
2009-11-06 11:10 51°31.911 2°55.148 8.1 16 11.5 100220 45
2009-11-06 11:11 51°31.897 2°55.154 10.7 10 11.6 100220 45
2009-11-06 11:12 51°31.862 2°55.171 10 349 11.6 100210 45
2009-11-06 11:13 51°31.801 2°55.142 10.6 316 11.5 100220 45
2009-11-06 11:14 51°31.778 2°55.004 12 22 11.5 100190 45
2009-11-06 11:15 51°31.749 2°54.825 13.1 24 11.5 100200 44
2009-11-06 11:16 51°31.693 2°54.569 13.3 315 11.5 100190 44
2009-11-06 11:17 51°31.631 2°54.266 13.9 25 11.5 100200 44
2009-11-06 11:18 51°31.569 2°53.966 12.2 20 11.5 100200 43
2009-11-06 11:19 51°31.511 2°53.665 14.7 22 11.5 100180 44
2009-11-06 11:20 51°31.452 2°53.365 16.1 21 11.5 100180 43
2009-11-06 11:21 51°31.394 2°53.068 15.3 21 11.5 100160 44
2009-11-06 11:22 51°31.349 2°52.846 11.5 24 11.5 100200 44
2009-11-06 11:23 51°31.339 2°52.715 13.5 24 11.5 100180 44
2009-11-06 11:24 51°31.314 2°52.628 8.5 317 11.4 100190 44
2009-11-06 11:25 51°31.279 2°52.567 10.3 318 11.5 100200 43
2009-11-06 11:26 51°31.254 2°52.525 11.7 319 11.5 100200 43
2009-11-06 11:27 51°31.25 2°52.528 10.8 26 11.4 100200 44
2009-11-06 11:28 51°31.242 2°52.541 8.2 251 11.5 100200 45
2009-11-06 11:29 51°31.23 2°52.548 6.7 261 11.5 100200 44
2009-11-06 11:30 51°31.223 2°52.546 6.1 267 11.6 100220 43
2009-11-06 11:31 51°31.221 2°52.54 8.8 261 11.5 100210 45
2009-11-06 11:32 51°31.221 2°52.528 8.2 260 11.5 100220 45
2009-11-06 11:33 51°31.22 2°52.519 7.7 262 11.5 100210 43
2009-11-06 11:34 51°31.218 2°52.514 4.7 264 11.4 100230 43
2009-11-06 11:35 51°31.218 2°52.509 7.9 268 11.4 100230 45
2009-11-06 11:36 51°31.217 2°52.506 5.9 260 11.3 100240 45
2009-11-06 11:37 51°31.217 2°52.504 7.5 267 11.3 100230 43
2009-11-06 11:38 51°31.217 2°52.503 10.3 267 11.3 100240 45
2009-11-06 11:39 51°31.217 2°52.502 8.1 264 11.2 100240 43
2009-11-06 11:40 51°31.218 2°52.5 6.3 264 11.2 100240 46
2009-11-06 11:41 51°31.217 2°52.5 5.9 269 11.3 100230 44
2009-11-06 11:42 51°31.216 2°52.502 6.8 261 11.3 100240 46
2009-11-06 11:43 51°31.215 2°52.504 8.9 269 11.3 100230 44
2009-11-06 11:44 51°31.216 2°52.501 6.1 268 11.3 100230 45
2009-11-06 11:45 51°31.217 2°52.499 8.9 266 11.3 100230 46
2009-11-06 11:46 51°31.217 2°52.499 7.2 259 11.4 100210 46
2009-11-06 11:47 51°31.216 2°52.501 6.4 265 11.3 100230 46
2009-11-06 11:48 51°31.215 2°52.505 8.5 267 11.3 100250 46
2009-11-06 11:49 51°31.214 2°52.508 7 270 11.4 100240 43
2009-11-06 11:50 51°31.213 2°52.51 6 264 11.3 100230 45
2009-11-06 11:51 51°31.214 2°52.51 8.3 264 11.3 100230 45
2009-11-06 11:52 51°31.215 2°52.509 5.5 263 11.3 100230 43
2009-11-06 11:53 51°31.215 2°52.507 7.4 264 11.3 100220 43
2009-11-06 11:54 51°31.216 2°52.508 6.7 266 11.2 100220 43
2009-11-06 11:55 51°31.215 2°52.511 7 262 11.2 100230 45
2009-11-06 11:56 51°31.214 2°52.516 6.2 265 11.3 100220 43
2009-11-06 11:57 51°31.213 2°52.523 11.4 259 11.3 100220 44
2009-11-06 11:58 51°31.213 2°52.527 7.1 263 11.3 100230 46
2009-11-06 11:59 51°31.214 2°52.528 8.2 260 11.3 100220 43
2009-11-06 12:00 51°31.215 2°52.528 5.5 265 11.3 100230 46
2009-11-06 12:01 51°31.216 2°52.53 4.8 262 11.3 100220 45
2009-11-06 12:02 51°31.216 2°52.531 7.9 262 11.3 100220 43
2009-11-06 12:03 51°31.217 2°52.53 11.9 257 11.3 100190 44
2009-11-06 12:04 51°31.217 2°52.532 7.3 261 11.3 100210 45
2009-11-06 12:05 51°31.218 2°52.536 10.4 261 11.3 100200 44
2009-11-06 12:06 51°31.219 2°52.54 9.4 262 11.2 100200 43
2009-11-06 12:07 51°31.22 2°52.544 9.5 255 11.3 100220 46
2009-11-06 12:08 51°31.221 2°52.545 7.6 258 11.3 100220 44
2009-11-06 12:09 51°31.222 2°52.548 11 257 11.4 100200 46
2009-11-06 12:10 51°31.223 2°52.548 12.3 257 11.4 100210 43
2009-11-06 12:11 51°31.225 2°52.548 10.3 256 11.4 100200 46
2009-11-06 12:12 51°31.227 2°52.551 10 253 11.4 100200 45
2009-11-06 12:13 51°31.228 2°52.554 11.8 257 11.4 100190 46
2009-11-06 12:14 51°31.23 2°52.554 13.7 257 11.4 100190 45
2009-11-06 12:15 51°31.233 2°52.554 10.5 256 11.4 100210 45
2009-11-06 12:16 51°31.235 2°52.557 9 256 11.4 100200 45
2009-11-06 12:17 51°31.237 2°52.56 12.5 255 11.4 100190 45
2009-11-06 12:18 51°31.239 2°52.563 10 252 11.4 100190 45
2009-11-06 12:19 51°31.243 2°52.565 9 251 11.4 100170 43
2009-11-06 12:20 51°31.245 2°52.566 10.6 253 11.4 100170 45
2009-11-06 12:21 51°31.249 2°52.57 10.1 255 11.5 100170 46
2009-11-06 12:22 51°31.253 2°52.576 12.1 253 11.5 100180 44
2009-11-06 12:23 51°31.257 2°52.573 11.1 246 11.5 100180 45
2009-11-06 12:24 51°31.259 2°52.563 9.6 245 11.5 100180 46
2009-11-06 12:25 51°31.259 2°52.543 11.3 27 11.5 100190 44
2009-11-06 12:26 51°31.256 2°52.53 10.9 32 11.5 100160 44
2009-11-06 12:27 51°31.252 2°52.52 10.9 27 11.5 100180 46
2009-11-06 12:28 51°31.245 2°52.513 9.3 318 11.5 100180 45
2009-11-06 12:29 51°31.242 2°52.515 10.4 324 11.4 100160 46
2009-11-06 12:30 51°31.212 2°52.516 12.1 339 11.5 100170 45
2009-11-06 12:31 51°31.137 2°52.51 12.8 327 11.4 100170 43
2009-11-06 12:32 51°31.014 2°52.462 12.3 334 11.5 100160 45
2009-11-06 12:33 51°30.853 2°52.425 16.5 333 11.4 100160 45
2009-11-06 12:34 51°30.673 2°52.39 15.1 334 11.4 100170 44
2009-11-06 12:35 51°30.491 2°52.354 14.7 335 11.4 100170 45
2009-11-06 12:36 51°30.312 2°52.32 15 335 11.4 100170 44
2009-11-06 12:37 51°30.134 2°52.285 15.1 339 11.5 100170 45
2009-11-06 12:38 51°29.959 2°52.253 14.8 335 11.5 100170 45
2009-11-06 12:39 51°29.783 2°52.225 13.4 337 11.5 100170 45
2009-11-06 12:40 51°29.608 2°52.207 13.4 339 11.5 100170 44
2009-11-06 12:41 51°29.433 2°52.205 14.8 337 11.5 100140 45
2009-11-06 12:42 51°29.259 2°52.204 16.9 335 11.6 100140 45
2009-11-06 12:43 51°29.087 2°52.204 14.1 337 11.5 100130 44
2009-11-06 12:44 51°28.914 2°52.202 16.5 338 11.5 100130 45
2009-11-06 12:45 51°28.736 2°52.198 16.7 335 11.6 100150 45
2009-11-06 12:46 51°28.559 2°52.194 14.8 336 11.6 100160 45
2009-11-06 12:47 51°28.384 2°52.191 14.7 339 11.5 100150 45
2009-11-06 12:48 51°28.207 2°52.184 15.4 339 11.6 100170 44
2009-11-06 12:49 51°28.03 2°52.179 13.8 341 11.6 100170 45
2009-11-06 12:50 51°27.852 2°52.176 14.4 339 11.6 100170 44
2009-11-06 12:51 51°27.676 2°52.171 12.5 339 11.7 100180 44
2009-11-06 12:52 51°27.499 2°52.167 14.4 333 11.7 100170 44
2009-11-06 12:53 51°27.323 2°52.166 16 339 11.6 100160 44
2009-11-06 12:54 51°27.147 2°52.164 16 335 11.6 100170 45
2009-11-06 12:55 51°26.972 2°52.17 13.1 338 11.6 100170 43
2009-11-06 12:56 51°26.797 2°52.186 13.2 337 11.7 100150 44
2009-11-06 12:57 51°26.622 2°52.206 14.9 340 11.7 100160 44
2009-11-06 12:58 51°26.449 2°52.227 13.6 338 11.7 100160 44
2009-11-06 12:59 51°26.277 2°52.248 14.1 335 11.7 100170 44
2009-11-06 13:00 51°26.107 2°52.267 14.3 338 11.6 100160 43
2009-11-06 13:01 51°25.938 2°52.286 13 336 11.7 100160 44
2009-11-06 13:02 51°25.768 2°52.309 14 340 11.7 100160 44
2009-11-06 13:03 51°25.599 2°52.33 15.3 343 11.7 100150 44
2009-11-06 13:04 51°25.425 2°52.348 14.4 339 11.8 100160 43
2009-11-06 13:05 51°25.251 2°52.368 14.7 339 11.8 100160 43
2009-11-06 13:06 51°25.077 2°52.389 14.8 341 11.9 100160 43
2009-11-06 13:07 51°24.906 2°52.409 12.9 341 11.9 100170 44
2009-11-06 13:08 51°24.734 2°52.429 13.9 341 11.9 100150 43
2009-11-06 13:09 51°24.561 2°52.441 15.6 336 11.8 100160 43
2009-11-06 13:10 51°24.391 2°52.445 16.1 337 12 100170 43
2009-11-06 13:11 51°24.222 2°52.446 12.7 337 11.9 100160 43
2009-11-06 13:12 51°24.053 2°52.447 15 335 11.9 100160 42
2009-11-06 13:13 51°23.884 2°52.45 16 335 12 100160 44
2009-11-06 13:14 51°23.716 2°52.452 16.5 339 12 100170 43
2009-11-06 13:15 51°23.549 2°52.46 17.1 337 11.9 100160 43
2009-11-06 13:16 51°23.385 2°52.467 13.5 336 12 100160 44
2009-11-06 13:17 51°23.222 2°52.474 15.2 335 12 100170 45
2009-11-06 13:18 51°23.058 2°52.482 15.1 332 12 100170 44
2009-11-06 13:19 51°22.896 2°52.491 13.9 336 11.9 100160 45
2009-11-06 13:20 51°22.733 2°52.503 13.1 337 11.9 100160 43
2009-11-06 13:21 51°22.582 2°52.515 16.2 283 11.9 100160 43
2009-11-06 13:23 51°22.362 2°52.531 16.2 334 11.9 100160 45
2009-11-06 13:24 51°22.196 2°52.537 13.5 336 11.8 100160 44
2009-11-06 13:25 51°22.037 2°52.55 14.3 336 11.7 100160 43
2009-11-06 13:26 51°21.875 2°52.563 13.9 335 11.8 100150 43
2009-11-06 13:27 51°21.713 2°52.575 15.9 333 11.7 100150 43
2009-11-06 13:28 51°21.549 2°52.589 13.5 335 11.7 100150 43
2009-11-06 13:29 51°21.382 2°52.602 15.2 335 11.7 100150 43
2009-11-06 13:30 51°21.213 2°52.617 15 337 11.8 100170 44
2009-11-06 13:31 51°21.046 2°52.629 14.2 333 11.8 100160 44
2009-11-06 13:32 51°20.879 2°52.636 13.4 334 11.7 100150 44
2009-11-06 13:33 51°20.713 2°52.643 13.3 334 11.7 100160 44
2009-11-06 13:34 51°20.548 2°52.646 15.1 335 11.7 100160 43
2009-11-06 13:35 51°20.38 2°52.65 16.9 334 11.7 100150 43
2009-11-06 13:36 51°20.216 2°52.657 13.1 335 11.7 100160 44
2009-11-06 13:37 51°20.058 2°52.648 14.5 334 11.7 100170 44
2009-11-06 13:38 51°19.896 2°52.624 15.1 334 11.7 100160 44
2009-11-06 13:39 51°19.741 2°52.603 13.9 334 11.6 100150 43
2009-11-06 13:40 51°19.584 2°52.581 15.5 333 11.6 100150 43
2009-11-06 13:41 51°19.43 2°52.552 13.8 330 11.6 100150 44
2009-11-06 13:42 51°19.275 2°52.505 15.4 329 11.6 100150 43
2009-11-06 13:43 51°19.127 2°52.459 14 330 11.6 100150 43
2009-11-06 13:44 51°18.973 2°52.41 12.9 328 11.6 100140 44
2009-11-06 13:45 51°18.823 2°52.375 13.5 332 11.6 100160 45
2009-11-06 13:46 51°18.665 2°52.363 13.4 333 11.6 100160 44
2009-11-06 13:47 51°18.506 2°52.356 13.1 331 11.5 100160 44
2009-11-06 13:48 51°18.347 2°52.346 13.7 332 11.5 100160 44
2009-11-06 13:49 51°18.186 2°52.331 15.5 329 11.5 100160 44
2009-11-06 13:50 51°18.028 2°52.314 13.8 331 11.5 100160 44
2009-11-06 13:51 51°17.873 2°52.295 13.4 329 11.4 100160 44
2009-11-06 13:52 51°17.719 2°52.276 13.6 332 11.5 100150 44
2009-11-06 13:53 51°17.563 2°52.257 15.2 329 11.4 100160 45
2009-11-06 13:54 51°17.405 2°52.237 14.3 329 11.4 100160 45
2009-11-06 13:55 51°17.241 2°52.217 14 333 11.4 100140 44
2009-11-06 13:56 51°17.078 2°52.215 12.9 334 11.3 100140 45
2009-11-06 13:57 51°16.917 2°52.275 13.8 337 11.4 100150 45
2009-11-06 13:58 51°16.758 2°52.391 13.1 339 11.4 100140 43
2009-11-06 13:59 51°16.604 2°52.528 13.7 345 11.4 100140 45
2009-11-06 14:00 51°16.454 2°52.685 14.1 343 11.4 100130 44
2009-11-06 14:01 51°16.304 2°52.838 14.1 340 11.4 100150 44
2009-11-06 14:02 51°16.154 2°52.989 14.3 341 11.4 100150 44
2009-11-06 14:03 51°16.002 2°53.134 12.3 342 11.4 100150 43
2009-11-06 14:04 51°15.848 2°53.278 14 343 11.4 100160 44
2009-11-06 14:05 51°15.699 2°53.417 11.5 342 11.4 100150 43
2009-11-06 14:06 51°15.546 2°53.562 12.9 342 11.4 100160 43
2009-11-06 14:07 51°15.4 2°53.721 12.3 345 11.4 100150 43
2009-11-06 14:08 51°15.257 2°53.879 13 348 11.4 100160 45
2009-11-06 14:09 51°15.109 2°54.042 10.9 347 11.3 100160 43
2009-11-06 14:10 51°14.968 2°54.201 14.1 347 11.4 100170 44
2009-11-06 14:11 51°14.832 2°54.386 13.7 343 11.3 100170 44
2009-11-06 14:12 51°14.698 2°54.577 12 341 11.3 100170 45
2009-11-06 14:13 51°14.565 2°54.77 12.1 342 11.3 100150 44
2009-11-06 14:14 51°14.429 2°54.962 10.4 348 11.3 100160 43
2009-11-06 14:15 51°14.304 2°55.167 5.9 355 11.3 100170 42
2009-11-06 14:16 51°14.194 2°55.345 7.7 341 11.3 100180 43
2009-11-06 14:17 51°14.071 2°55.461 5.4 338 11.4 100180 43
2009-11-06 14:18 51°13.96 2°55.543 6.8 339 11.3 100180 45
2009-11-06 14:19 51°13.848 2°55.625 6.7 332 11.3 100180 45
2009-11-06 14:20 51°13.746 2°55.737 6.6 346 11.4 100180 45
2009-11-06 14:21 51°13.694 2°55.845 4.1 359 11.4 100180 45
2009-11-06 14:22 51°13.67 2°55.938 3.5 358 11.3 100190 44
2009-11-06 14:23 51°13.662 2°55.955 0.1 14 11.3 100200 42